�������l�o���
Date,Time,MP-1(��Sv/h),MP-2(��Sv/h),MP-3(��Sv/h),MP-4(��Sv/h),MP-5(��Sv/h),MP-6(��Sv/h),MP-7(��Sv/h),MP-8(��Sv/h),����,����(m/s),���J
2018/06/12,00:00,0.821,1.168,0.813,1.485,0.993,0.458,0.801,0.770,�k�k��,10.3,��
2018/06/12,00:10,0.823,1.172,0.812,1.486,0.992,0.457,0.801,0.770,�k�k��,11.1,�L
2018/06/12,00:20,0.825,1.173,0.812,1.488,0.994,0.460,0.804,0.770,�k,10.2,��
2018/06/12,00:30,0.825,1.173,0.814,1.492,0.995,0.460,0.803,0.771,�k�k��,10.5,�L
2018/06/12,00:40,0.825,1.174,0.818,1.494,0.997,0.460,0.802,0.770,�k�k��,9.7,�L
2018/06/12,00:50,0.825,1.176,0.817,1.494,0.998,0.461,0.804,0.773,�k�k��,9.2,�L
2018/06/12,01:00,0.827,1.176,0.818,1.494,0.998,0.461,0.803,0.771,�k�k��,8.6,�L
2018/06/12,01:10,0.826,1.179,0.816,1.498,1.000,0.460,0.804,0.772,�k�k��,7.9,�L
2018/06/12,01:20,0.827,1.178,0.817,1.498,1.002,0.459,0.802,0.773,�k�k��,9.2,�L
2018/06/12,01:30,0.827,1.177,0.817,1.497,1.002,0.461,0.804,0.774,�k�k��,8.8,�L
2018/06/12,01:40,0.826,1.175,0.818,1.496,1.002,0.462,0.804,0.774,�k�k��,8.1,�L
2018/06/12,01:50,0.825,1.179,0.818,1.496,1.002,0.462,0.803,0.775,�k�k��,7.1,�L
2018/06/12,02:00,0.825,1.178,0.817,1.497,1.001,0.460,0.805,0.773,�k�k��,6.9,�L
2018/06/12,02:10,0.825,1.178,0.817,1.498,1.004,0.462,0.803,0.773,�k�k��,7.7,�L
2018/06/12,02:20,0.826,1.177,0.819,1.497,1.004,0.462,0.803,0.774,�k�k��,7.3,�L
2018/06/12,02:30,0.826,1.179,0.819,1.498,1.004,0.460,0.805,0.773,�k�k��,8.1,�L
2018/06/12,02:40,0.828,1.179,0.819,1.494,1.006,0.462,0.806,0.773,�k�k��,6.5,�L
2018/06/12,02:50,0.825,1.181,0.819,1.499,1.004,0.461,0.806,0.773,�k�k��,6.9,�L
2018/06/12,03:00,0.828,1.182,0.819,1.497,1.005,0.461,0.805,0.774,�k�k��,7.6,�L
2018/06/12,03:10,0.828,1.181,0.820,1.497,1.005,0.462,0.805,0.775,�k�k��,7.6,�L
2018/06/12,03:20,0.827,1.181,0.820,1.500,1.005,0.462,0.804,0.774,�k�k��,6.2,�L
2018/06/12,03:30,0.827,1.180,0.818,1.496,1.007,0.462,0.803,0.773,�k�k��,6.1,�L
2018/06/12,03:40,0.828,1.183,0.820,1.500,1.006,0.461,0.805,0.775,�k�k��,6.1,�L
2018/06/12,03:50,0.828,1.184,0.821,1.500,1.006,0.463,0.806,0.774,�k�k��,6.4,�L
2018/06/12,04:00,0.829,1.182,0.820,1.499,1.009,0.463,0.804,0.775,�k��,5.6,�L
2018/06/12,04:10,0.827,1.182,0.821,1.499,1.008,0.464,0.803,0.775,�k��,6.3,�L
2018/06/12,04:20,0.826,1.182,0.821,1.499,1.009,0.462,0.804,0.774,�k�k��,7.0,�L
2018/06/12,04:30,0.826,1.182,0.818,1.497,1.007,0.462,0.805,0.775,�k�k��,7.2,�L
2018/06/12,04:40,0.829,1.181,0.818,1.499,1.007,0.462,0.805,0.774,�k�k��,7.1,��
2018/06/12,04:50,0.828,1.181,0.818,1.498,1.012,0.462,0.806,0.774,�k�k��,7.4,�L
2018/06/12,05:00,0.826,1.184,0.822,1.500,1.011,0.463,0.806,0.774,�k�k��,7.9,�L
2018/06/12,05:10,0.826,1.184,0.820,1.502,1.010,0.463,0.805,0.777,�k�k��,6.5,��
2018/06/12,05:20,0.827,1.186,0.820,1.498,1.011,0.462,0.805,0.775,�k�k��,5.0,��
2018/06/12,05:30,0.828,1.185,0.822,1.500,1.012,0.463,0.806,0.775,�k�k��,5.7,��
2018/06/12,05:40,0.828,1.184,0.820,1.501,1.015,0.463,0.806,0.776,�k,4.7,��
2018/06/12,05:50,0.830,1.185,0.822,1.503,1.016,0.464,0.807,0.776,�k,4.8,��
2018/06/12,06:00,0.827,1.186,0.823,1.505,1.015,0.462,0.807,0.776,�k,3.5,��
2018/06/12,06:10,0.828,1.185,0.823,1.507,1.016,0.462,0.807,0.776,�k,4.6,��
2018/06/12,06:20,0.830,1.184,0.823,1.505,1.017,0.463,0.807,0.775,�k,4.9,��
2018/06/12,06:30,0.830,1.183,0.822,1.507,1.016,0.462,0.806,0.776,�k,4.5,��
2018/06/12,06:40,0.830,1.186,0.824,1.508,1.017,0.462,0.810,0.777,�k,5.1,��
2018/06/12,06:50,0.831,1.185,0.825,1.507,1.015,0.462,0.809,0.775,�k,4.7,��
2018/06/12,07:00,0.830,1.186,0.823,1.510,1.018,0.462,0.810,0.775,�k,3.7,��
2018/06/12,07:10,0.830,1.188,0.824,1.506,1.019,0.462,0.811,0.777,�k�k��,3.4,��
2018/06/12,07:20,0.829,1.187,0.825,1.508,1.017,0.463,0.809,0.776,�k,4.3,��
2018/06/12,07:30,0.829,1.189,0.826,1.510,1.018,0.462,0.809,0.777,�k�k��,4.9,��
2018/06/12,07:40,0.829,1.190,0.823,1.509,1.019,0.461,0.811,0.776,�k�k��,5.2,��
2018/06/12,07:50,0.830,1.191,0.825,1.512,1.022,0.462,0.810,0.776,�k�k��,4.9,��
2018/06/12,08:00,0.830,1.190,0.826,1.511,1.019,0.461,0.810,0.775,�k�k��,5.0,��
2018/06/12,08:10,0.831,1.191,0.825,1.511,1.022,0.461,0.809,0.776,�k��,5.0,��
2018/06/12,08:20,0.831,1.191,0.825,1.512,1.021,0.462,0.811,0.775,�k�k��,4.8,��
2018/06/12,08:30,0.828,1.192,0.824,1.514,1.021,0.462,0.811,0.775,�k��,4.0,��
2018/06/12,08:40,0.830,1.192,0.825,1.516,1.024,0.463,0.812,0.775,�k��,4.2,��
2018/06/12,08:50,0.833,1.195,0.825,1.515,1.026,0.463,0.812,0.775,�k��,4.1,��
2018/06/12,09:00,0.834,1.193,0.824,1.513,1.022,0.463,0.813,0.775,�k��,3.8,��
2018/06/12,09:10,0.835,1.194,0.824,1.514,1.027,0.462,0.813,0.776,���k��,3.0,��
2018/06/12,09:20,0.836,1.192,0.823,1.510,1.026,0.463,0.812,0.777,���k��,3.5,��
2018/06/12,09:30,0.837,1.193,0.823,1.515,1.025,0.464,0.814,0.776,���k��,3.5,��
2018/06/12,09:40,0.837,1.195,0.825,1.514,1.028,0.463,0.813,0.776,���k��,2.6,��
2018/06/12,09:50,0.837,1.196,0.824,1.515,1.027,0.462,0.813,0.778,���k��,2.0,��
2018/06/12,10:00,0.838,1.199,0.827,1.515,1.028,0.464,0.812,0.777,���k��,1.7,��
2018/06/12,10:10,0.838,1.198,0.824,1.516,1.028,0.462,0.813,0.777,��,1.7,��
2018/06/12,10:20,0.837,1.198,0.827,1.516,1.029,0.465,0.812,0.778,���쓌,1.2,��
2018/06/12,10:30,0.837,1.197,0.829,1.515,1.029,0.465,0.816,0.775,�k��,2.0,��
2018/06/12,10:40,0.837,1.199,0.826,1.516,1.030,0.465,0.814,0.777,�k��,1.5,��
2018/06/12,10:50,0.839,1.199,0.826,1.518,1.029,0.465,0.814,0.778,��,1.1,��
2018/06/12,11:00,0.837,1.198,0.825,1.519,1.032,0.463,0.816,0.777,��쓌,1.4,��
2018/06/12,11:10,0.839,1.198,0.828,1.520,1.031,0.464,0.814,0.778,��,1.2,��
2018/06/12,11:20,0.838,1.197,0.827,1.516,1.030,0.465,0.813,0.777,��,2.2,��
2018/06/12,11:30,0.839,1.197,0.826,1.516,1.032,0.465,0.814,0.779,��쓌,1.5,��
2018/06/12,11:40,0.839,1.200,0.828,1.518,1.034,0.464,0.815,0.777,�쓌,2.3,��
2018/06/12,11:50,0.839,1.203,0.826,1.520,1.035,0.466,0.815,0.776,�쓌,2.6,��
2018/06/12,12:00,0.839,1.201,0.828,1.519,1.034,0.466,0.817,0.778,���쓌,2.9,��
2018/06/12,12:10,0.839,1.199,0.830,1.518,1.035,0.465,0.815,0.778,�쓌,3.5,��
2018/06/12,12:20,0.839,1.204,0.830,1.522,1.035,0.466,0.817,0.779,�쓌,2.8,��
2018/06/12,12:30,0.843,1.204,0.829,1.522,1.035,0.464,0.817,0.779,���쓌,2.9,��
2018/06/12,12:40,0.845,1.203,0.827,1.521,1.038,0.465,0.816,0.779,��,2.9,��
2018/06/12,12:50,0.845,1.207,0.830,1.521,1.038,0.464,0.816,0.778,��,2.5,��
2018/06/12,13:00,0.846,1.203,0.831,1.520,1.038,0.466,0.817,0.779,��,2.3,��
2018/06/12,13:10,0.847,1.204,0.828,1.519,1.038,0.466,0.817,0.779,���쓌,2.6,��
2018/06/12,13:20,0.847,1.196,0.828,1.521,1.036,0.465,0.817,0.779,���k��,2.9,��
2018/06/12,13:30,0.846,1.200,0.830,1.519,1.040,0.465,0.817,0.780,���k��,3.7,��
2018/06/12,13:40,0.845,1.201,0.829,1.524,1.038,0.465,0.816,0.779,���k��,3.8,��
2018/06/12,13:50,0.849,1.203,0.829,1.521,1.038,0.465,0.816,0.778,�k��,3.0,��
2018/06/12,14:00,0.850,1.205,0.829,1.523,1.036,0.466,0.817,0.779,�k��,3.7,��
2018/06/12,14:10,0.850,1.204,0.830,1.523,1.038,0.466,0.816,0.778,�k��,3.2,��
2018/06/12,14:20,0.852,1.204,0.831,1.520,1.040,0.466,0.816,0.780,���k��,3.1,��
2018/06/12,14:30,0.851,1.205,0.832,1.523,1.039,0.466,0.816,0.779,���k��,2.6,��
2018/06/12,14:40,0.852,1.207,0.830,1.524,1.039,0.466,0.817,0.779,�k��,2.6,��
2018/06/12,14:50,0.849,1.204,0.832,1.522,1.036,0.466,0.818,0.779,�k��,2.5,��
2018/06/12,15:00,0.852,1.205,0.833,1.523,1.039,0.467,0.819,0.780,�k�k��,2.3,�L
2018/06/12,15:10,0.849,1.206,0.835,1.524,1.039,0.466,0.818,0.778,�k�k��,1.2,�L
2018/06/12,15:20,0.850,1.204,0.830,1.518,1.035,0.467,0.814,0.777,���쓌,6.1,�L
2018/06/12,15:30,0.844,1.187,0.826,1.511,1.025,0.468,0.810,0.777,-,CALM,�L
2018/06/12,15:40,0.843,1.184,0.826,1.508,1.025,0.468,0.810,0.775,�k��,2.5,�L
2018/06/12,15:50,0.843,1.177,0.824,1.501,1.022,0.467,0.808,0.773,-,CALM,�L
2018/06/12,16:00,0.842,1.174,0.824,1.496,1.019,0.468,0.807,0.772,���k��,3.7,�L
2018/06/12,16:10,0.843,1.181,0.826,1.497,1.023,0.471,0.808,0.773,���쓌,2.3,�L
2018/06/12,16:20,0.846,1.182,0.827,1.498,1.025,0.469,0.809,0.777,��,2.0,�L
2018/06/12,16:30,0.846,1.181,0.827,1.500,1.025,0.469,0.808,0.775,��,2.3,�L
2018/06/12,16:40,0.845,1.182,0.827,1.499,1.025,0.468,0.808,0.773,��,1.7,�L
2018/06/12,16:50,0.846,1.187,0.828,1.500,1.023,0.468,0.809,0.772,���k��,2.3,�L
2018/06/12,17:00,0.847,1.186,0.826,1.503,1.025,0.468,0.811,0.774,���k��,2.0,��
2018/06/12,17:10,0.847,1.186,0.826,1.502,1.024,0.466,0.808,0.775,���k��,2.0,��
2018/06/12,17:20,0.847,1.186,0.829,1.501,1.025,0.466,0.808,0.775,��,2.0,��
2018/06/12,17:30,0.844,1.189,0.827,1.501,1.024,0.466,0.810,0.775,��,2.0,��
2018/06/12,17:40,0.843,1.189,0.826,1.502,1.024,0.465,0.809,0.775,���쓌,1.7,��
2018/06/12,17:50,0.846,1.189,0.825,1.504,1.026,0.465,0.809,0.776,���쓌,2.0,��
2018/06/12,18:00,0.844,1.190,0.828,1.502,1.024,0.463,0.808,0.775,���쓌,1.5,��
2018/06/12,18:10,0.843,1.190,0.827,1.502,1.025,0.464,0.808,0.774,���쓌,1.4,��
2018/06/12,18:20,0.844,1.190,0.826,1.500,1.024,0.463,0.810,0.775,���k��,0.9,��
2018/06/12,18:30,0.843,1.191,0.825,1.505,1.026,0.465,0.808,0.775,���k��,1.5,��
2018/06/12,18:40,0.843,1.190,0.828,1.503,1.025,0.465,0.809,0.775,���k��,1.5,��
2018/06/12,18:50,0.843,1.189,0.825,1.504,1.027,0.465,0.807,0.774,���k��,2.3,��
2018/06/12,19:00,0.843,1.188,0.827,1.502,1.029,0.465,0.812,0.775,�k��,2.3,��
2018/06/12,19:10,0.845,1.192,0.828,1.505,1.029,0.464,0.809,0.775,���k��,2.5,��
2018/06/12,19:20,0.844,1.190,0.827,1.504,1.029,0.465,0.810,0.777,���k��,2.8,��
2018/06/12,19:30,0.844,1.189,0.827,1.505,1.030,0.464,0.810,0.777,���k��,3.1,��
2018/06/12,19:40,0.846,1.191,0.826,1.506,1.030,0.464,0.810,0.776,���k��,2.3,��
2018/06/12,19:50,0.845,1.190,0.826,1.505,1.030,0.465,0.812,0.776,�k�k��,1.5,��
2018/06/12,20:00,0.843,1.190,0.827,1.506,1.031,0.465,0.812,0.778,���k��,2.0,��
2018/06/12,20:10,0.844,1.191,0.827,1.506,1.027,0.465,0.810,0.776,�k��,2.3,��
2018/06/12,20:20,0.846,1.191,0.828,1.507,1.031,0.465,0.810,0.777,���k��,2.3,��
2018/06/12,20:30,0.846,1.191,0.827,1.507,1.032,0.466,0.809,0.778,�k��,2.5,��
2018/06/12,20:40,0.846,1.193,0.826,1.507,1.032,0.465,0.811,0.778,���k��,1.7,��
2018/06/12,20:50,0.844,1.190,0.826,1.506,1.031,0.465,0.812,0.778,���k��,1.7,��
2018/06/12,21:00,0.845,1.191,0.826,1.508,1.031,0.464,0.810,0.777,�k��,1.5,��
2018/06/12,21:10,0.847,1.195,0.827,1.512,1.032,0.464,0.811,0.777,�k��,0.8,��
2018/06/12,21:20,0.846,1.191,0.828,1.508,1.031,0.465,0.811,0.778,�k�k��,0.9,��
2018/06/12,21:30,0.845,1.192,0.827,1.508,1.033,0.466,0.810,0.778,�k�k��,0.6,��
2018/06/12,21:40,0.844,1.194,0.827,1.509,1.031,0.464,0.810,0.779,�k�k��,1.2,�L
2018/06/12,21:50,0.845,1.195,0.829,1.508,1.033,0.465,0.813,0.779,�k,1.2,��
2018/06/12,22:00,0.845,1.191,0.826,1.509,1.031,0.465,0.813,0.778,�k,2.0,��
2018/06/12,22:10,0.845,1.193,0.829,1.507,1.035,0.465,0.812,0.780,�k,2.2,��
2018/06/12,22:20,0.845,1.192,0.828,1.511,1.032,0.465,0.812,0.778,�k��,1.7,��
2018/06/12,22:30,0.846,1.195,0.829,1.510,1.035,0.464,0.812,0.780,�k,1.9,��
2018/06/12,22:40,0.846,1.193,0.828,1.510,1.035,0.465,0.811,0.779,�k�k��,1.7,��
2018/06/12,22:50,0.846,1.194,0.825,1.512,1.035,0.466,0.812,0.778,�k,0.9,��
2018/06/12,23:00,0.844,1.197,0.827,1.513,1.033,0.466,0.812,0.779,�k�k��,0.6,�L
2018/06/12,23:10,0.845,1.196,0.828,1.511,1.036,0.464,0.814,0.779,�k��,1.1,��
2018/06/12,23:20,0.845,1.196,0.826,1.509,1.035,0.466,0.812,0.778,�k��,0.9,��
2018/06/12,23:30,0.845,1.195,0.828,1.510,1.035,0.465,0.812,0.780,�k�k��,1.4,��
2018/06/12,23:40,0.845,1.196,0.830,1.511,1.034,0.465,0.814,0.779,�k,0.9,��
2018/06/12,23:50,0.843,1.192,0.829,1.510,1.036,0.465,0.814,0.779,�k,0.9,��
